Weather reports worldwide

Advertisment
Lecce, Italy (16332): temperature & dewpoint: 12.09.2019 06:00:00 - 18.09.2019 06:00:00 (CEST)Lecce, Italy (16332): wind speed: 12.09.2019 06:00:00 - 18.09.2019 06:00:00 (CEST)Lecce, Italy (16332): wind direction: 12.09.2019 06:00:00 - 18.09.2019 06:00:00 (CEST)Lecce, Italy (16332): reduced air pressure: 12.09.2019 06:00:00 - 18.09.2019 06:00:00 (CEST)Lecce, Italy (16332): visibility: 12.09.2019 06:00:00 - 18.09.2019 06:00:00 (CEST)
Date & Time tt [°C] td [°C] ff [km/h] ff [kn] dd ppp [hPa] vv [km]
18.09.2019 06:00:00 - - - - - - -
18.09.2019 05:00:00 19,2 18,0 5 3 SE 1014,8 10
18.09.2019 04:00:00 19,0 18,0 5 3 SE - 10
18.09.2019 03:00:00 19,0 17,0 4 2 - - 10
18.09.2019 02:00:00 19,0 17,8 4 2 N 1015,0 10
18.09.2019 01:00:00 19,0 17,0 5 3 - - 10
18.09.2019 00:00:00 20,0 19,0 5 3 - - 10
17.09.2019 23:00:00 21,2 19,5 5 3 - 1015,4 10
17.09.2019 22:00:00 22,0 20,0 4 2 - - 10
17.09.2019 21:00:00 23,0 20,0 2 1 - - 10
17.09.2019 20:00:00 23,8 20,1 2 1 WSW 1014,7 10
17.09.2019 19:00:00 25,0 21,0 8 4 SW - 10
17.09.2019 18:00:00 27,0 21,0 16 9 SW - 10
17.09.2019 17:00:00 29,0 21,5 13 7 ENE 1014,4 10
17.09.2019 16:00:00 30,0 21,0 11 6 W - 10
17.09.2019 15:00:00 30,0 22,0 8 4 SW - 10
17.09.2019 14:00:00 29,0 18,2 8 4 W 1015,7 10
17.09.2019 13:00:00 29,0 19,0 5 3 E - 10
17.09.2019 12:00:00 28,0 19,0 5 3 NNE - 10
17.09.2019 11:00:00 26,8 17,9 5 3 NW 1017,0 10
17.09.2019 10:00:00 24,0 18,0 5 3 NNE - 10
17.09.2019 09:00:00 20,0 19,0 2 1 NW - 8
17.09.2019 08:00:00 17,6 16,6 4 2 N 1016,7 1,1
17.09.2019 07:00:00 15,0 14,0 2 1 - - 0,1
17.09.2019 06:00:00 15,0 14,0 0 0 N - 0,7
17.09.2019 05:00:00 15,0 14,2 4 2 N 1016,4 3,0
17.09.2019 04:00:00 16,0 15,0 2 1 - - 6
17.09.2019 03:00:00 16,0 15,0 2 1 - - 10
17.09.2019 02:00:00 17,0 16,2 4 2 N 1017,3 10
17.09.2019 01:00:00 17,0 16,0 4 2 - - 10
17.09.2019 00:00:00 18,0 17,0 2 1 - - 10
16.09.2019 23:00:00 19,0 18,0 0 0 N 1017,3 10
16.09.2019 22:00:00 20,0 19,0 0 0 N - 10
16.09.2019 21:00:00 22,0 20,0 5 3 - - 10
16.09.2019 20:00:00 23,2 20,5 8 4 NNE 1017,2 10
16.09.2019 19:00:00 25,0 21,0 9 5 NNE - 10
16.09.2019 18:00:00 25,0 21,0 15 8 N - 10
16.09.2019 17:00:00 26,8 21,1 11 6 NNE 1017,5 10
16.09.2019 16:00:00 28,0 21,0 13 7 NNE - 10
16.09.2019 15:00:00 28,0 23,0 15 8 N - 10
16.09.2019 14:00:00 27,8 22,3 15 8 NNE 1018,8 10
16.09.2019 13:00:00 28,0 23,0 15 8 NNE - 10
16.09.2019 12:00:00 28,0 21,0 13 7 N - 10
16.09.2019 11:00:00 26,4 20,5 13 7 NNW 1019,8 10
16.09.2019 10:00:00 25,0 21,0 13 7 N - 10
16.09.2019 09:00:00 23,0 21,0 2 1 - - 10
16.09.2019 08:00:00 19,0 18,2 4 2 NNW 1019,9 10
16.09.2019 07:00:00 16,0 15,0 5 3 NNW - 8
16.09.2019 06:00:00 16,0 15,0 4 2 NW - 7
16.09.2019 05:00:00 17,0 16,2 4 2 N 1020,8 10
16.09.2019 04:00:00 17,0 16,0 4 2 - - 10
16.09.2019 03:00:00 17,0 17,0 2 1 N - 10
16.09.2019 02:00:00 18,0 17,2 5 3 NW 1021,3 10
16.09.2019 01:00:00 18,0 18,0 4 2 NW - 10
16.09.2019 00:00:00 20,0 19,0 5 3 NW - 10
15.09.2019 23:00:00 20,4 19,4 4 2 N 1021,7 10
15.09.2019 22:00:00 21,0 20,0 5 3 NNW - 10
15.09.2019 21:00:00 22,0 21,0 5 3 N - 10
15.09.2019 20:00:00 23,4 21,1 9 5 N 1021,2 10
15.09.2019 19:00:00 25,0 21,0 13 7 N - 10
15.09.2019 18:00:00 26,0 20,0 16 9 N - 10
15.09.2019 17:00:00 26,4 18,5 22 12 N 1021,7 10
15.09.2019 16:00:00 28,0 20,0 21 11 NNE - 10
15.09.2019 15:00:00 28,0 19,0 18 10 N - 10
15.09.2019 14:00:00 28,4 17,9 18 10 NNE 1022,1 10
15.09.2019 13:00:00 29,0 18,0 16 9 N - 10
15.09.2019 12:00:00 28,0 19,0 16 9 N - 10
15.09.2019 11:00:00 27,8 19,3 16 9 N 1022,8 10
15.09.2019 10:00:00 27,0 20,0 21 11 N - 10
15.09.2019 09:00:00 25,0 21,0 18 10 NNW - 10
15.09.2019 08:00:00 22,6 20,5 16 9 NNW 1022,2 10
15.09.2019 07:00:00 21,0 19,0 15 8 NNW - 10
15.09.2019 06:00:00 21,0 19,0 16 9 NNW - 10
15.09.2019 05:00:00 22,0 20,8 24 13 NNW 1022,0 10
15.09.2019 04:00:00 22,0 20,0 16 9 NNW - 10
15.09.2019 03:00:00 22,0 20,0 18 10 NNW - 10
15.09.2019 02:00:00 22,0 19,5 18 10 NNW 1022,4 10
15.09.2019 01:00:00 22,0 20,0 16 9 NNW - 10
15.09.2019 00:00:00 22,0 20,0 16 9 NNW - 10
14.09.2019 23:00:00 21,0 19,3 13 7 NNW 1022,8 10
14.09.2019 22:00:00 21,0 19,0 13 7 NNW - 10
14.09.2019 21:00:00 22,0 19,0 13 7 NNW - 10
14.09.2019 20:00:00 22,0 18,4 18 10 NNW 1022,2 10
14.09.2019 19:00:00 24,0 16,0 24 13 NNW - 10
14.09.2019 18:00:00 26,0 16,0 24 13 NNW - 10
14.09.2019 17:00:00 27,0 15,7 26 14 NNW 1022,4 10
14.09.2019 16:00:00 27,0 15,0 29 16 N - 10
14.09.2019 15:00:00 28,0 16,0 29 16 N - 10
14.09.2019 14:00:00 28,0 16,0 29 16 N 1023,5 10
14.09.2019 13:00:00 28,0 17,0 24 13 N - 10
14.09.2019 12:00:00 28,0 15,0 24 13 NNE - 10
14.09.2019 11:00:00 27,4 16,1 22 12 NNE 1023,6 10
14.09.2019 10:00:00 27,0 16,0 18 10 WNW - 10
14.09.2019 09:00:00 25,0 21,0 15 8 NNW - 10
14.09.2019 08:00:00 22,0 19,6 13 7 NNW 1022,4 10
14.09.2019 07:00:00 21,0 19,0 13 7 NW - 10
14.09.2019 06:00:00 22,0 20,0 16 9 NNW - 10
14.09.2019 05:00:00 22,0 20,3 18 10 NNW 1022,5 10
14.09.2019 04:00:00 22,0 20,0 16 9 NNW - 10
14.09.2019 03:00:00 22,0 20,0 28 15 NNW - 10
14.09.2019 02:00:00 21,0 19,3 18 10 NNW 1023,6 10
14.09.2019 01:00:00 21,0 19,0 15 8 NNW - 10
14.09.2019 00:00:00 21,0 19,0 15 8 NNW - 10
13.09.2019 23:00:00 21,0 19,3 18 10 NNW 1023,6 10
13.09.2019 22:00:00 23,0 20,0 16 9 NNW - 10
13.09.2019 21:00:00 23,0 19,0 22 12 NNW - 10
13.09.2019 20:00:00 23,2 17,7 24 13 NNW 1023,2 10
13.09.2019 19:00:00 24,0 16,0 28 15 NNW - 10
13.09.2019 18:00:00 26,0 16,0 26 14 N - 10
13.09.2019 17:00:00 27,0 14,1 31 17 N 1022,6 10
13.09.2019 16:00:00 28,0 16,0 29 16 N - 10
13.09.2019 15:00:00 27,0 16,0 28 15 N - 10
13.09.2019 14:00:00 27,0 16,3 34 18 N 1023,3 10
13.09.2019 13:00:00 27,0 15,0 35 19 N - 10
13.09.2019 12:00:00 27,0 18,0 28 15 NNE - 10
13.09.2019 11:00:00 27,0 17,8 29 16 NNE 1023,9 10
13.09.2019 10:00:00 26,0 17,0 28 15 N - 10
13.09.2019 09:00:00 26,0 19,0 18 10 N - 10
13.09.2019 08:00:00 22,4 18,4 9 5 NW 1023,3 10
13.09.2019 07:00:00 21,0 18,0 13 7 NNW - 10
13.09.2019 06:00:00 20,0 18,0 13 7 NNW - 10
13.09.2019 05:00:00 21,0 19,5 13 7 NNW 1023,1 10
13.09.2019 04:00:00 21,0 20,0 13 7 NW - 10
13.09.2019 03:00:00 22,0 21,0 16 9 NW - 10
13.09.2019 02:00:00 22,0 20,7 24 13 NW 1023,2 10
13.09.2019 01:00:00 22,0 21,0 21 11 NNW - 10
13.09.2019 00:00:00 23,0 21,0 24 13 NNW - 10
12.09.2019 23:00:00 22,6 21,2 26 14 NNW 1023,0 10
12.09.2019 22:00:00 23,0 21,0 24 13 NNW - 10
12.09.2019 21:00:00 23,0 21,0 16 9 NNW - 10
12.09.2019 20:00:00 23,0 21,1 24 13 NNW 1022,7 10
12.09.2019 19:00:00 24,0 21,0 22 12 NNW - 10
12.09.2019 18:00:00 - - - - - - -
12.09.2019 17:00:00 26,0 21,0 24 13 NNW 1022,1 10
12.09.2019 16:00:00 26,0 21,0 28 15 N - 10
12.09.2019 15:00:00 26,0 21,0 28 15 N - 10
12.09.2019 14:00:00 26,0 20,8 29 16 N 1022,7 10
12.09.2019 13:00:00 27,0 21,0 26 14 N - 10
12.09.2019 12:00:00 27,0 22,0 28 15 N - 10
12.09.2019 11:00:00 27,0 22,2 24 13 N 1022,9 10
12.09.2019 10:00:00 25,0 21,0 22 12 NNW - 10
12.09.2019 09:00:00 24,0 21,0 21 11 NNW - 10
12.09.2019 08:00:00 21,0 19,8 11 6 NW 1021,5 10
12.09.2019 07:00:00 19,0 18,0 8 4 WNW - 10
12.09.2019 06:00:00 18,0 18,0 5 3 - - 10

tt = temperature
td = dewpoint
ff = wind speed
dd = wind direction
ppp = reduced air pressure
vv = visibility

Next stations